Content
SEND FEEDBACK

Daily
Averages
Monthly
Summary
United Kingdom

PORTLAND, ENGLAND


Home > Europe > United Kingdom > England
Elevation: 10 feet     Latitude: 50 34N     Longitude: 002 27W

WEATHER
 
SELECT A DAY
Number of Records: 254,117;   Date Range: 7/1/96 - 8/29/14
 
SHARE

PRINT THIS DATA

[ ← Previous Day ]
WEATHER ALMANAC - NOVEMBER 9, 2013
[ Next Day → ]
[ °C ]   °F
Weather ElementAverageHighLow
Temperature42.6 °F50 °F (12:50 pm)35.6 °F (5:50 am)
Dewpoint41 °F46.4 °F (11:50 am)33.8 °F (5:50 am)
Humidity93.7 %100 % (3:50 am)82 % (3:00 pm)
Barometer29.71 in29.81 in (3:00 am)29.59 in (9:50 pm)
Wind Speed4.4 mph11.5 mph (1:50 pm)
Weather ElementAverage
Visibility7.2 mi
Wind DirectionSSW (200.2 °)

Weather ElementTotal
Precipitation---
Heating Degree Days22.2 (Base 65)
Averaged from 51 records on November 9, 2013
WEATHER CONDITIONS BREAKOUT
WIND DIRECTION BREAKOUT
WEATHER BY HOUR - NOVEMBER 9, 2013
[ °C ]   °F
Local TimeTemperatureDewpointHumidityBarometerVisibilityWind DirectionWind SpeedGust SpeedPrecipitationEventsConditions
12:20 AM41.0 °F37.4 °F87 %29.80 inWest (280°)8.1 mphClear
12:50 AM39.2 °F35.6 °F87 %29.80 inWest (270°)5.8 mphClear
1:20 AM41.0 °F39.2 °F93 %29.80 inWSW (250°)3.5 mphClear
1:50 AM39.2 °F37.4 °F93 %29.80 inWest (270°)4.6 mphClear
2:20 AM39.2 °F37.4 °F93 %29.80 inWSW (250°)4.6 mphClear
2:50 AM39.2 °F37.4 °F93 %29.80 inWSW (250°)4.6 mphClear
3:00 AM40.0 °F38.0 °F89 %29.81 in19.0 miWSW (250°)4.6 mph
3:20 AM37.4 °F35.6 °F93 %29.80 inWSW (240°)4.6 mphClear
3:50 AM37.4 °F37.4 °F100 %29.77 inWSW (240°)5.8 mphClear
4:20 AM37.4 °F35.6 °F93 %29.77 inWest (270°)3.5 mphClear
4:50 AM39.2 °F37.4 °F93 %29.77 inWSW (250°)5.8 mphClear
5:20 AM39.2 °F37.4 °F93 %29.77 inWSW (250°)2.3 mphClear
5:50 AM35.6 °F33.8 °F93 %29.77 inWSW (240°)1.2 mphClear
6:00 AM36.0 °F35.0 °F92 %29.78 in16.0 miWSW (240°)1.2 mph
6:20 AM35.6 °F35.6 °F100 %29.74 inSE (140°)1.2 mphClear
6:50 AM35.6 °F35.6 °F100 %29.74 in6.2 miVariable2.3 mphPartly Cloudy
7:20 AM35.6 °F35.6 °F100 %29.74 in6.2 miENE (70°)3.5 mphMostly Cloudy
7:50 AM37.4 °F37.4 °F100 %29.74 in6.2 miENE (70°)4.6 mphRainLight Rain
8:20 AM37.4 °F37.4 °F100 %29.74 in4.3 miWSW (240°)3.5 mphRainRain
8:50 AM41.0 °F41.0 °F100 %29.74 in6.2 miWest (270°)2.3 mphRainLight Rain
9:00 AM42.0 °F41.0 °F97 %29.74 in7.0 miWest (270°)2.3 mphRainRain Showers
9:20 AM42.8 °F42.8 °F100 %29.71 in5.0 miESE (120°)3.5 mphRainLight Rain
9:50 AM44.6 °F42.8 °F93 %29.68 in6.2 miEast (80°)3.5 mphRainRain
10:20 AM44.6 °F44.6 °F100 %29.68 in6.2 miNE (50°)5.8 mphRainLight Rain
10:50 AM44.6 °F44.6 °F100 %29.68 in4.3 miNorth (360°)5.8 mphRainHeavy Rain Showers
11:20 AM44.6 °F44.6 °F100 %29.65 in6.2 miNNE (30°)3.5 mphScattered Clouds
11:50 AM46.4 °F46.4 °F100 %29.65 in3.1 miNNE (30°)3.5 mphScattered Clouds
12:00 PM46.0 °F46.0 °F99 %29.67 in19.0 miNNE (30°)3.5 mphRainRain
12:20 PM48.2 °F46.4 °F93 %29.65 in3.7 miNorth (10°)3.5 mphRainLight Rain
12:50 PM50.0 °F46.4 °F87 %29.62 in6.2 miNNE (30°)2.3 mphRainLight Rain Showers
1:20 PM50.0 °F46.4 °F87 %29.65 in6.2 miNW (310°)5.8 mphScattered Clouds
1:50 PM50.0 °F46.4 °F87 %29.65 in6.2 miWNW (300°)11.5 mphMostly Cloudy
2:20 PM48.2 °F44.6 °F87 %29.65 in6.2 miNW (310°)11.5 mphPartly Cloudy
2:50 PM46.4 °F42.8 °F87 %29.68 in6.2 miNW (320°)10.4 mphScattered Clouds
3:00 PM47.0 °F43.0 °F82 %29.69 in25.0 miNW (320°)10.4 mphScattered Clouds
3:20 PM46.4 °F42.8 °F87 %29.68 in6.2 miNW (310°)8.1 mphScattered Clouds
3:50 PM46.4 °F42.8 °F87 %29.68 in6.2 miWNW (300°)5.8 mphPartly Cloudy
4:20 PM44.6 °F42.8 °F93 %29.68 in6.2 miWNW (290°)6.9 mphPartly Cloudy
4:50 PM42.8 °F41.0 °F93 %29.68 in6.2 miWest (280°)3.5 mphPartly Cloudy
5:20 PM42.8 °F42.8 °F100 %29.71 in6.2 miWSW (240°)4.6 mphPartly Cloudy
5:50 PM44.6 °F42.8 °F93 %29.68 in6.2 miSouth (190°)3.5 mphPartly Cloudy
6:00 PM45.0 °F43.0 °F89 %29.70 in7.0 miSouth (190°)3.5 mphMostly Cloudy
6:20 PM44.6 °F42.8 °F93 %29.68 inSSW (200°)3.5 mphClear
6:50 PM44.6 °F42.8 °F93 %29.68 inSouth (180°)3.5 mphClear
7:20 PM44.6 °F42.8 °F93 %29.68 in5.6 miWSW (240°)3.5 mph
7:50 PM44.6 °F42.8 °F93 %29.65 inSW (230°)2.3 mphClear
8:20 PM44.6 °F42.8 °F93 %29.62 in3.7 miSE (130°)2.3 mphOvercast
8:50 PM44.6 °F42.8 °F93 %29.62 inSouth (180°)1.2 mphRainRain
9:00 PM44.0 °F43.0 °F95 %29.64 in2.0 miSouth (180°)1.2 mphRainLight Rain
9:20 PM44.6 °F42.8 °F93 %29.62 in1.0 miEast (100°)2.3 mphRainRain
9:50 PM44.6 °F44.6 °F100 %29.59 inENE (60°)5.8 mphRainRain
Hourly data recorded from EGHH, located miles away from Portland, England







STORIES FROM OUR PARTNERS